Retour au catalogue

FENGYUN 1C DEB

ActifPO
NORAD 30616·DEBRIS·🇨🇳 China

Lancé May 10, 1999 depuis Taiyuan Satellite Launch Center

Loading…

Prochains Passages (prochaines 24 heures)

TLE

FraisSource: Space-Track

Époque: Sep 14, 2026, 00:25 UTC

1 30616U 99025AMX 26257.01748701  .00000599  00000-0  81406-3 0  9996
2 30616  98.6239 278.6940 0380422 284.3648  71.5544 13.36610134953770

Suivez FENGYUN 1C DEB en temps réel avec AllMySat

Download on the App Store